Date,TemperatureHighF,TemperatureAvgF,TemperatureLowF,DewpointHighF,DewpointAvgF,DewpointLowF,HumidityHigh,HumidityAvg,HumidityLow,PressureMaxIn,PressureMinIn,WindSpeedMaxMPH,WindSpeedAvgMPH,GustSpeedMaxMPH,PrecipitationSumIn
2013-1-1,40.6,25.5,13.2,20.0,13.7,10.0,92,64,36,30.44,30.16,5,0,0,0.00
2013-1-2,38.2,22.3,7.0,13.0,8.5,3.0,89,59,27,30.51,30.35,4,0,0,0.00
2013-1-3,39.1,23.5,11.6,13.0,9.3,5.0,85,58,33,30.58,30.43,4,0,0,0.00
2013-1-4,36.5,20.0,6.2,10.0,4.2,-1.0,77,53,28,30.59,30.40,6,0,0,0.00
2013-1-5,44.0,23.6,6.7,11.0,5.2,1.0,82,50,22,30.65,30.50,3,0,0,0.00
2013-1-6,44.8,24.9,8.0,10.0,6.8,2.0,80,50,23,30.64,30.32,5,0,0,0.00
2013-1-7,52.2,34.0,22.1,17.0,13.1,9.0,66,45,24,30.32,30.02,1,0,0,0.00
2013-1-8,54.1,32.2,14.3,17.0,13.3,9.0,83,51,18,30.38,30.06,8,0,0,0.00
2013-1-9,56.0,33.2,16.2,17.0,13.1,10.0,78,49,20,30.57,30.27,5,0,0,0.00
2013-1-10,48.9,31.3,17.4,16.0,13.1,9.0,75,50,26,30.26,29.84,5,0,0,0.00
2013-1-11,40.5,31.1,14.6,25.0,5.7,-8.0,74,38,18,30.03,29.70,11,2,0,0.00
2013-1-12,37.5,18.6,3.2,2.0,-4.6,-10.0,72,39,16,30.28,30.02,5,0,0,0.00
2013-1-13,33.4,17.3,2.6,5.0,-2.2,-7.0,71,45,25,30.39,30.20,6,0,0,0.00
2013-1-14,30.9,18.7,8.7,23.0,9.7,-3.0,81,68,48,30.36,30.18,5,0,0,0.02
2013-1-15,28.7,14.8,1.2,7.0,1.6,-4.0,81,58,34,30.69,30.36,6,0,0,0.00
2013-1-16,42.6,22.1,4.6,15.0,7.1,-1.0,77,55,31,30.77,30.57,4,0,0,0.00
2013-1-17,50.0,27.8,10.3,18.0,12.3,6.0,87,57,26,30.77,30.56,2,0,0,0.00
2013-1-18,54.0,31.4,15.7,21.0,15.5,11.0,98,58,26,30.58,30.36,5,0,0,0.00
2013-1-19,56.9,33.5,18.5,22.0,16.6,13.0,84,55,21,30.52,30.37,5,0,0,0.00
2013-1-20,54.4,33.3,13.9,19.0,13.7,10.0,88,51,21,30.46,30.28,3,0,0,0.00
2013-1-21,56.9,34.8,13.8,16.0,12.5,7.0,79,45,18,30.45,30.28,4,0,0,0.00
2013-1-22,58.9,36.0,16.3,19.0,13.9,9.0,85,47,17,30.44,30.30,5,0,0,0.00
2013-1-23,60.0,36.0,16.6,16.0,11.4,8.0,77,42,14,30.51,30.34,5,0,0,0.00
2013-1-24,65.2,41.5,18.3,34.0,16.6,8.0,68,42,16,30.45,30.23,5,0,0,0.00
2013-1-25,60.4,45.2,31.3,40.0,32.9,26.0,86,64,44,30.29,30.11,2,0,0,0.00
2013-1-26,56.0,45.7,39.0,50.0,39.8,33.0,92,80,61,30.15,29.83,8,0,0,0.20
2013-1-27,63.3,48.9,38.2,42.0,38.2,34.0,93,70,35,29.96,29.81,9,1,0,0.00
2013-1-28,57.7,43.1,31.8,40.0,32.5,19.0,96,69,43,29.86,29.66,11,2,0,0.01
2013-1-29,39.8,33.4,25.5,23.0,15.2,5.0,71,49,27,30.06,29.70,8,1,0,0.00
2013-1-30,45.5,32.0,19.5,18.0,14.4,10.0,80,52,26,30.35,30.07,9,1,0,0.00
2013-1-31,56.0,35.4,16.6,26.0,18.7,13.0,90,57,24,30.46,30.31,4,0,0,0.00
2013-2-1,58.4,36.0,16.1,24.0,18.8,13.0,93,56,23,30.38,30.23,5,0,0,0.00
2013-2-2,59.6,39.4,21.4,25.0,19.9,17.0,87,51,21,30.46,30.32,2,0,0,0.00
2013-2-3,53.7,39.8,23.9,29.0,21.3,17.0,80,52,24,30.37,30.04,2,0,0,0.00
2013-2-4,60.7,44.4,29.2,31.0,25.1,18.0,88,51,22,30.13,29.96,4,0,0,0.00
2013-2-5,62.3,41.2,25.1,26.0,18.8,15.0,82,47,16,30.14,29.97,3,0,0,0.00
2013-2-6,65.7,42.3,21.5,29.0,21.1,15.0,79,47,24,30.04,29.86,6,0,0,0.00
2013-2-7,60.0,41.4,25.7,29.0,20.4,13.0,85,48,19,30.16,30.01,4,0,0,0.00
2013-2-8,60.9,43.2,27.1,25.0,20.8,16.0,71,44,24,30.14,29.74,9,2,0,0.00
2013-2-9,52.9,34.3,19.5,24.0,16.6,6.0,95,53,20,29.91,29.62,11,2,0,0.00
2013-2-10,49.2,33.8,23.4,21.0,14.6,10.0,77,49,24,30.06,29.91,7,1,0,0.00
2013-2-11,51.3,32.6,15.5,23.0,16.2,5.0,90,58,15,30.14,29.98,7,1,0,0.00
2013-2-12,47.9,33.0,21.6,22.0,13.0,7.0,76,48,20,30.28,30.04,7,1,0,0.00
2013-2-13,55.5,34.6,15.3,16.0,12.8,8.0,76,45,20,30.32,30.14,7,1,0,0.00
2013-2-14,57.5,39.4,20.8,22.0,17.4,13.0,77,45,19,30.26,30.08,9,1,0,0.00
2013-2-15,57.5,38.3,18.9,23.0,12.6,4.0,87,42,12,30.44,30.25,8,1,0,0.00
2013-2-16,63.5,38.5,17.0,15.0,7.4,0.0,71,34,10,30.52,30.20,6,0,0,0.00
2013-2-17,62.5,40.4,15.9,10.0,4.9,1.0,58,29,9,30.21,29.74,8,1,0,0.00
2013-2-18,57.6,42.3,26.0,18.0,-1.8,-20.0,59,20,4,30.09,29.82,6,1,0,0.00
2013-2-19,63.2,40.7,17.1,35.0,7.3,-8.0,66,30,9,30.14,29.75,15,3,0,0.00
2013-2-20,54.4,43.8,33.5,36.0,28.9,17.0,81,59,24,29.74,29.41,13,2,0,0.00
2013-2-21,53.3,38.1,29.1,31.0,23.9,19.0,90,61,27,29.93,29.51,6,1,0,0.06
2013-2-22,45.2,34.2,24.2,25.0,20.7,12.0,87,61,30,30.13,29.92,5,1,0,0.00
2013-2-23,52.3,34.2,15.1,19.0,13.1,10.0,82,48,19,30.21,29.78,7,1,0,0.00
2013-2-24,49.1,36.7,29.0,25.0,15.6,4.0,84,46,21,29.93,29.65,8,1,0,0.00
2013-2-25,54.1,37.6,23.6,25.0,11.4,1.0,85,40,14,30.16,29.93,7,1,0,0.00
2013-2-26,54.2,33.5,15.2,17.0,4.5,-7.0,75,35,12,30.20,29.89,19,2,0,0.00
2013-2-27,52.2,33.5,14.5,11.0,4.4,-1.0,70,33,14,30.39,30.20,4,0,0,0.00
2013-2-28,59.1,37.2,18.4,10.0,3.9,-3.0,53,28,8,30.46,30.29,5,1,0,0.00
2013-3-1,64.8,47.2,32.4,20.0,14.2,5.0,40,28,16,30.42,30.22,6,1,0,0.00
2013-3-2,73.1,47.6,24.6,26.0,20.1,16.0,72,39,14,30.41,30.14,6,0,0,0.00
2013-3-3,72.5,49.5,24.8,23.0,15.7,-1.0,68,33,6,30.15,29.82,8,1,0,0.00
2013-3-4,69.0,53.7,41.9,24.0,20.7,16.0,41,29,14,30.00,29.65,8,1,0,0.00
2013-3-5,64.0,46.2,29.2,23.0,17.2,6.0,72,37,10,30.28,30.02,7,0,0,0.00
2013-3-6,68.9,51.9,37.9,27.0,21.4,15.0,45,32,19,30.15,29.83,8,1,0,0.00
2013-3-7,73.9,53.1,30.9,23.0,18.5,16.0,59,31,11,30.02,29.78,9,1,0,0.00
2013-3-8,65.1,47.1,32.6,43.0,26.6,13.0,84,50,18,29.86,29.64,9,2,0,0.13
2013-3-9,52.4,41.1,32.6,34.0,25.1,18.0,77,55,28,29.98,29.74,6,1,0,0.00
2013-3-10,57.5,40.2,25.7,30.0,23.1,14.0,92,56,23,30.20,29.98,5,0,0,0.00
2013-3-11,69.8,45.4,22.6,23.0,17.5,9.0,81,41,11,30.23,29.99,5,0,0,0.00
2013-3-12,75.2,52.3,29.4,26.0,21.9,19.0,72,35,14,30.17,30.01,6,1,0,0.00
2013-3-13,75.3,52.6,29.3,29.0,23.0,18.0,78,38,14,30.30,30.09,6,0,0,0.00
2013-3-14,81.5,55.6,33.4,26.0,19.2,14.0,61,30,9,30.27,30.05,5,0,0,0.00
2013-3-15,83.4,57.6,33.2,22.0,17.4,8.0,53,27,6,30.11,29.80,5,0,0,0.00
2013-3-16,76.4,57.3,35.6,34.0,22.8,18.0,55,30,13,29.82,29.59,6,1,0,0.00
2013-3-17,74.8,54.4,34.9,40.0,21.0,-11.0,84,38,4,29.74,29.55,15,1,0,0.00
2013-3-18,76.6,51.8,29.4,14.0,8.0,3.0,50,21,6,29.93,29.75,8,1,0,0.00
2013-3-19,68.7,48.6,35.1,19.0,12.3,8.0,40,25,11,30.14,29.91,5,0,0,0.00
2013-3-20,66.8,48.0,25.2,26.0,18.7,14.0,65,35,17,30.24,29.82,7,1,0,0.00
2013-3-21,76.7,59.4,46.0,34.0,19.5,-2.0,52,27,5,29.82,29.46,10,1,0,0.00
2013-3-22,70.1,51.1,27.9,28.0,13.4,6.0,50,26,9,29.72,29.50,7,1,0,0.00
2013-3-23,51.0,41.6,25.9,27.0,4.0,-15.0,61,26,7,30.09,29.61,11,2,0,0.00
2013-3-24,60.0,40.0,19.5,1.0,-4.1,-11.0,34,17,7,30.21,29.95,6,1,0,0.00
2013-3-25,59.1,41.3,22.5,14.0,7.7,-1.0,54,28,13,30.25,30.06,5,0,0,0.00
2013-3-26,70.6,49.3,25.2,14.0,10.3,6.0,49,24,10,30.22,29.89,11,2,0,0.00
2013-3-27,77.6,56.1,37.3,18.0,13.1,9.0,43,21,8,29.99,29.80,5,1,0,0.00
2013-3-28,79.7,60.5,40.2,25.0,17.6,11.0,41,21,8,29.98,29.83,8,1,0,0.00
2013-3-29,81.2,60.0,39.7,26.0,20.5,15.0,45,25,9,30.04,29.86,6,0,0,0.00
2013-3-30,61.3,41.2,33.5,24.0,20.5,19.0,56,45,24,30.07,29.97,2,0,0,0.00
2013-4-10,50.2,41.5,33.1,23.0,16.8,-99.9,64,45,34,29.96,29.86,4,0,0,0.00
2013-4-11,72.5,49.7,26.9,31.0,25.1,19.0,75,43,17,30.00,29.76,7,1,0,0.00
2013-4-12,76.7,57.5,39.7,35.0,30.1,24.0,77,40,16,29.82,29.64,5,1,0,0.00
2013-4-13,80.3,60.1,35.8,30.0,23.1,14.0,65,30,10,29.78,29.48,7,1,0,0.00
2013-4-14,80.7,66.6,55.5,31.0,24.7,21.0,31,21,13,29.52,29.34,8,2,0,0.00
2013-4-15,85.4,64.2,41.3,30.0,22.4,14.0,59,24,7,29.55,29.33,11,2,0,0.00
2013-4-16,82.9,66.7,46.7,27.0,18.2,8.0,43,18,6,29.60,29.37,19,3,0,0.00
2013-4-17,67.7,54.5,38.1,31.0,21.8,12.0,46,29,14,29.84,29.42,12,2,0,0.00
2013-4-18,55.4,42.0,29.4,19.0,8.8,1.0,52,29,13,30.24,29.86,11,1,0,0.00
2013-4-19,68.5,46.7,24.0,16.0,7.8,3.0,50,24,9,30.34,29.95,5,1,0,0.00
2013-4-20,74.4,55.6,37.7,22.0,16.1,5.0,54,25,10,29.96,29.73,10,1,0,0.00
2013-4-21,80.7,57.3,33.4,27.0,19.6,7.0,64,29,7,30.05,29.82,5,0,0,0.00
2013-4-22,87.8,64.0,35.9,28.0,19.0,10.0,69,24,7,29.89,29.57,7,1,0,0.00
2013-4-23,74.3,59.7,42.2,31.0,18.4,-10.0,55,23,6,29.94,29.59,7,1,0,0.00
2013-4-24,73.4,50.8,28.4,29.0,20.4,16.0,64,36,12,30.13,29.94,6,1,0,0.00
2013-4-25,81.1,61.3,46.2,33.0,26.5,18.0,48,29,12,30.01,29.64,17,2,0,0.00
2013-4-26,83.2,61.6,40.6,34.0,24.1,1.0,75,32,5,30.02,29.84,7,0,0,0.00
2013-4-27,84.0,60.6,38.0,35.0,19.0,-1.0,68,29,5,30.09,29.87,5,0,0,0.00
2013-4-28,87.3,62.1,35.3,23.0,14.4,4.0,49,21,5,29.96,29.68,8,0,0,0.00
2013-4-29,90.9,65.3,38.2,28.0,21.1,15.0,64,24,7,29.78,29.50,5,1,0,0.00
2013-4-30,92.1,68.4,43.9,32.0,22.2,12.0,60,23,7,29.63,29.45,6,1,0,0.00
2013-5-1,88.3,69.7,49.9,31.0,17.6,-4.0,44,16,7,29.93,29.56,11,1,0,0.00
2013-5-2,66.5,52.3,37.3,29.0,20.6,13.0,63,32,14,30.31,29.95,8,2,0,0.00
2013-5-3,70.2,52.5,31.5,22.0,15.9,10.0,50,27,11,30.34,29.90,8,1,0,0.00
2013-5-4,81.8,61.1,38.4,22.0,15.0,7.0,50,21,7,29.93,29.69,10,1,0,0.00
2013-5-5,80.5,64.8,51.8,34.0,22.9,9.0,30,21,12,29.92,29.75,9,2,0,0.00
2013-5-6,73.9,62.4,53.1,42.0,30.1,20.0,44,30,19,29.82,29.73,10,1,0,0.00
2013-5-7,79.0,62.9,42.1,39.0,32.9,27.0,72,36,15,29.88,29.65,11,1,0,0.00
2013-5-8,76.5,61.3,43.0,40.0,29.7,21.0,79,36,14,29.85,29.72,7,1,0,0.00
2013-5-9,77.4,60.8,42.2,35.0,28.6,22.0,64,32,16,29.93,29.77,5,0,0,0.00
2013-5-10,74.0,59.2,44.9,50.0,39.0,34.0,72,49,26,30.14,29.90,7,1,0,0.14
2013-5-11,74.0,59.2,44.7,46.0,40.1,31.0,90,55,21,30.18,30.09,7,1,0,0.00
2013-5-12,83.4,61.7,39.6,41.0,36.5,31.0,83,46,15,30.22,29.95,6,0,0,0.00
2013-5-13,87.6,66.1,44.2,39.0,35.4,29.0,72,38,14,30.11,29.87,6,0,0,0.00
2013-5-14,90.1,68.2,44.4,47.0,34.6,28.0,68,35,12,29.94,29.64,9,1,0,0.00
2013-5-15,91.3,71.1,58.9,52.0,40.2,26.0,67,37,13,29.75,29.54,5,0,0,0.00
2013-5-16,91.0,70.9,47.2,36.0,27.2,14.0,61,24,8,29.78,29.55,8,0,0,0.00
2013-5-17,88.6,72.4,46.0,36.0,25.4,15.0,56,21,8,29.78,29.54,13,1,0,0.00
2013-5-18,79.9,68.4,49.9,35.0,25.8,16.0,45,21,13,29.74,29.53,14,1,0,0.00
2013-5-19,79.6,65.5,54.1,41.0,33.6,26.0,59,33,16,29.72,29.61,9,1,0,0.00
2013-5-20,79.7,63.9,46.5,40.0,32.9,14.0,74,36,9,29.79,29.61,10,1,0,0.00
2013-5-21,83.4,63.8,43.2,41.0,34.0,25.0,72,38,13,29.88,29.64,6,0,0,0.00
2013-5-22,89.1,69.4,45.8,37.0,29.2,16.0,66,29,8,29.75,29.53,8,1,0,0.00
2013-5-23,92.8,72.5,47.5,39.0,28.0,17.0,57,24,7,29.74,29.52,14,2,0,0.00
2013-5-24,89.8,73.7,52.1,49.0,36.7,24.0,75,33,10,29.81,29.60,8,1,0,0.00
2013-5-25,91.7,72.1,47.3,45.0,30.6,16.0,64,27,8,29.83,29.57,11,1,0,0.00
2013-5-26,89.4,71.4,47.8,39.0,24.2,10.0,64,22,6,29.80,29.57,9,1,0,0.00
2013-5-27,86.5,67.1,47.8,39.0,26.0,17.0,56,25,9,29.77,29.58,5,0,0,0.00
2013-5-28,86.0,68.6,43.1,36.0,24.7,11.0,60,24,6,29.64,29.36,7,1,0,0.00
2013-5-29,85.4,71.0,56.0,42.0,29.3,15.0,56,24,9,29.50,29.34,5,0,0,0.00
2013-5-30,90.1,70.9,47.3,44.0,29.6,20.0,56,24,11,29.65,29.49,5,0,0,0.00
2013-5-31,89.6,73.6,55.7,46.0,31.8,9.0,52,25,9,29.72,29.56,8,1,0,0.00
2013-6-1,88.6,70.3,45.2,36.0,22.1,5.0,46,19,5,29.85,29.70,7,0,0,0.00
2013-6-2,88.6,74.1,58.4,51.0,39.9,31.0,51,30,19,29.85,29.55,9,1,0,0.00
2013-6-3,92.5,75.3,56.0,55.0,40.4,16.0,74,35,8,29.73,29.49,8,2,0,0.00
2013-6-4,94.6,76.4,49.9,41.0,29.1,14.0,60,21,6,29.72,29.52,8,1,0,0.00
2013-6-5,90.8,75.4,57.2,50.0,38.9,29.0,62,30,13,29.68,29.52,9,1,0,0.00
2013-6-6,91.6,72.8,51.4,53.0,43.2,33.0,75,39,16,29.79,29.59,9,0,0,0.00
2013-6-7,92.8,74.5,55.6,56.0,46.3,37.0,83,41,15,29.75,29.47,7,1,0,0.00
2013-6-8,97.3,77.2,55.9,53.0,41.5,28.0,72,35,12,29.64,29.43,9,1,0,0.00
2013-6-9,98.3,79.5,61.5,57.0,46.1,33.0,68,34,13,29.70,29.54,2,0,0,0.00
2013-6-10,100.9,82.6,60.5,58.0,43.2,28.0,79,32,9,29.71,29.52,11,1,0,0.00
2013-6-11,101.8,82.3,61.6,49.0,35.3,22.0,55,21,8,29.72,29.50,5,0,0,0.00
2013-6-12,101.7,77.3,54.0,49.0,37.9,30.0,54,28,8,29.80,29.63,4,0,0,0.00
2013-6-14,95.4,83.8,70.0,60.0,49.3,-99.9,55,33,20,29.67,29.49,12,1,0,0.00
2013-6-15,96.5,77.0,58.2,56.0,47.0,35.0,78,40,14,29.80,29.61,5,1,0,0.00
2013-6-16,95.5,78.3,60.0,55.0,45.9,40.0,71,34,15,29.80,29.64,6,0,0,0.00
2013-6-17,95.5,75.9,56.7,54.0,46.2,39.0,70,39,16,29.84,29.60,10,0,0,0.00
2013-6-18,92.8,79.2,65.8,60.0,49.9,41.0,61,38,19,29.80,29.52,8,2,0,0.00
2013-6-19,98.5,78.7,54.5,53.0,35.5,10.0,73,28,4,29.66,29.42,16,1,0,0.00
2013-6-20,97.3,75.2,52.3,46.0,30.2,14.0,70,25,5,29.72,29.51,6,0,0,0.00
2013-6-21,96.1,73.1,51.2,49.0,31.6,24.0,59,26,8,29.79,29.54,6,0,0,0.00
2013-6-22,95.7,74.7,50.6,45.0,31.7,20.0,60,25,8,29.74,29.52,4,0,0,0.00
2013-6-23,95.0,75.3,48.7,42.0,27.4,15.0,61,22,7,29.73,29.50,7,1,0,0.00
2013-6-24,95.5,75.8,55.0,49.0,31.2,15.0,59,23,9,29.69,29.51,6,0,0,0.00
2013-6-25,96.8,75.9,52.7,46.0,33.9,25.0,58,24,9,29.79,29.61,4,0,0,0.00
2013-6-26,100.5,77.9,52.5,51.0,38.2,32.0,68,29,9,29.84,29.66,2,0,0,0.00
2013-6-27,107.0,82.6,56.8,57.0,41.2,31.0,65,28,9,29.83,29.63,4,0,0,0.00
2013-6-28,99.8,84.6,73.0,60.0,48.5,36.0,41,29,16,29.82,29.65,18,1,0,0.00
2013-6-29,100.3,80.1,63.5,59.0,50.0,40.0,65,38,13,29.82,29.61,4,0,0,0.00
2013-6-30,98.9,79.0,60.8,61.0,51.4,46.0,69,41,18,29.85,29.55,5,1,0,0.00
2013-7-1,91.5,74.6,58.6,61.0,53.9,46.0,90,52,27,29.91,29.72,8,1,0,0.03
2013-7-2,90.0,74.0,59.8,58.0,51.4,46.0,72,47,25,29.95,29.68,12,1,0,0.00
2013-7-3,86.6,73.9,61.3,60.0,54.8,46.0,88,55,28,29.89,29.59,9,1,0,0.05
2013-7-4,93.5,77.5,58.4,62.0,54.2,48.0,90,49,22,29.72,29.55,6,1,0,0.00
2013-7-5,95.9,77.1,64.5,64.0,57.8,50.0,91,55,24,29.67,29.45,4,0,0,0.19
2013-7-6,94.1,75.0,63.7,64.0,59.8,50.0,92,65,26,29.73,29.53,4,0,0,0.02
2013-7-7,96.4,79.8,63.1,65.0,58.6,49.0,92,54,22,29.73,29.56,6,0,0,0.02
2013-7-8,97.5,78.7,66.6,63.0,58.4,54.0,80,53,23,29.85,29.64,6,0,0,0.01
2013-7-9,98.2,78.8,64.0,65.0,60.2,54.0,91,57,26,29.87,29.69,6,0,0,0.00
2013-7-10,96.8,82.3,66.2,65.0,57.0,52.0,76,45,22,29.82,29.62,8,1,0,0.00
2013-7-11,91.3,79.1,69.4,65.0,58.0,53.0,72,50,28,29.82,29.61,8,1,0,0.00
2013-7-12,94.5,78.0,62.8,64.0,58.8,54.0,90,55,30,29.75,29.61,10,1,0,0.00
2013-7-13,96.9,80.4,64.8,65.0,58.0,52.0,89,50,23,29.78,29.61,5,0,0,0.01
2013-7-14,98.6,78.9,65.7,64.0,58.5,51.0,90,55,21,29.78,29.50,5,0,0,0.59
2013-7-15,75.5,69.0,64.6,65.0,58.3,51.0,94,71,51,29.90,29.70,10,1,0,0.01
2013-7-16,85.9,72.6,61.1,58.0,51.4,47.0,80,49,29,29.96,29.81,7,1,0,0.00
2013-7-17,81.9,70.7,57.7,58.0,51.6,-99.9,93,58,34,30.03,29.91,7,1,0,0.04
2013-7-18,87.8,73.8,57.9,64.0,55.4,52.0,89,55,33,30.00,29.77,7,1,0,0.00
2013-7-19,90.9,72.6,65.4,67.0,62.0,55.0,93,72,36,29.85,29.66,5,0,0,0.49
2013-7-20,90.4,75.7,64.7,66.0,60.9,54.0,90,64,36,29.79,29.60,5,0,0,0.01
2013-7-21,93.6,77.0,65.0,64.0,58.0,51.0,86,55,26,29.73,29.57,5,0,0,0.00
2013-7-22,95.4,78.6,61.6,63.0,56.1,49.0,87,50,23,29.74,29.57,7,0,0,0.00
2013-7-23,98.0,79.9,62.3,65.0,55.4,48.0,85,46,21,29.71,29.55,3,0,0,0.02
2013-7-24,91.8,72.4,63.6,65.0,57.4,53.0,79,61,29,29.89,29.67,5,0,0,0.11
2013-7-25,87.9,74.7,62.8,65.0,60.4,58.0,89,64,40,29.91,29.74,6,1,0,0.00
2013-7-26,73.7,73.7,73.7,60.0,60.0,60.0,63,63,63,29.85,29.85,0,0,0,0.00
2013-7-29,-200.0,0.0,200.0,-99.9,-99.9,-99.9,0,0,100,0.00,0.00,0,-999,0,0.00
2013-7-30,68.4,0.7,68.4,57.0,-98.3,-99.9,66,1,66,29.89,0.00,0,-989,0,0.00
2013-7-31,97.9,77.7,61.0,63.0,54.7,44.0,83,49,20,29.99,29.75,4,0,0,0.00
2013-8-1,90.7,76.2,66.2,68.0,59.5,52.0,90,58,36,29.89,29.74,6,1,0,0.05
2013-8-2,92.8,75.9,62.2,66.0,61.3,55.0,96,66,32,29.84,29.66,4,0,0,0.06
2013-8-3,93.2,74.8,60.2,66.0,59.6,54.0,96,64,29,29.86,29.71,2,0,0,0.10
2013-8-4,95.9,77.2,63.3,67.0,60.3,51.0,91,61,25,29.85,29.67,6,0,0,0.18
2013-8-5,92.9,73.7,62.0,66.0,61.0,56.0,92,68,32,29.85,29.67,1,0,0,0.18
2013-8-6,93.2,74.2,62.2,64.0,57.2,53.0,82,58,30,29.78,29.66,7,0,0,0.00
2013-8-7,86.3,71.0,57.7,65.0,57.0,53.0,94,64,35,29.80,29.71,6,0,0,0.00
2013-8-8,90.3,72.8,59.8,64.0,54.8,46.0,90,58,27,29.82,29.69,4,0,0,0.00
2013-8-9,90.3,75.0,58.4,62.0,50.7,42.0,76,45,24,29.89,29.75,4,0,0,0.00
2013-8-10,88.1,71.6,59.0,60.0,54.0,47.0,84,57,34,30.03,29.83,5,1,0,0.08
2013-8-11,86.5,71.2,60.1,61.0,56.1,49.0,90,63,32,30.04,29.83,4,0,0,0.09
2013-8-12,87.6,71.7,62.6,63.0,58.2,55.0,83,65,36,29.95,29.79,8,1,0,0.00
2013-8-13,90.2,72.1,57.4,63.0,56.8,50.0,92,63,30,29.94,29.77,2,0,0,0.00
2013-8-14,91.2,69.8,56.5,62.0,54.2,45.0,94,62,25,29.93,29.77,7,0,0,0.00
2013-8-15,94.7,71.9,57.7,61.0,54.3,41.0,92,59,22,29.92,29.75,4,0,0,0.00
2013-8-16,98.4,76.7,54.8,58.0,50.4,40.0,92,46,13,29.91,29.73,4,0,0,0.00
2013-8-17,99.8,81.1,67.4,56.0,50.7,45.0,57,37,16,29.85,29.64,6,0,0,0.00
2013-8-18,97.2,79.6,64.7,59.0,53.3,47.0,70,43,19,29.83,29.66,3,0,0,0.00
2013-8-19,98.0,78.6,61.4,58.0,53.9,49.0,78,45,20,29.81,29.64,7,0,0,0.00
2013-8-20,94.2,74.5,58.2,65.0,58.3,51.0,93,62,25,29.83,29.65,3,0,0,0.03
2013-8-21,93.8,75.5,59.3,63.0,56.3,50.0,93,57,28,29.85,29.70,5,0,0,0.03
2013-8-22,95.4,76.7,59.0,62.0,53.5,46.0,82,48,24,29.88,29.67,4,0,0,0.00
2013-8-23,90.0,72.6,52.8,58.0,49.6,46.0,81,48,26,29.86,29.70,7,1,0,0.00
2013-8-24,88.7,74.1,64.1,63.0,57.1,51.0,91,58,30,29.87,29.72,7,0,0,0.08
2013-8-25,89.6,72.8,63.2,66.0,61.8,57.0,95,72,37,29.95,29.84,6,0,0,0.09
2013-8-26,90.9,74.1,59.7,64.0,58.8,54.0,95,64,31,29.97,29.79,5,0,0,0.02
2013-8-27,92.2,74.1,57.3,61.0,54.7,48.0,90,55,28,29.90,29.72,7,0,0,0.00
2013-8-28,92.6,74.1,56.6,61.0,53.9,50.0,85,53,26,29.89,29.76,6,1,0,0.00
2013-8-29,90.4,76.2,65.2,61.0,57.0,53.0,79,53,32,29.91,29.80,7,1,0,0.00
2013-8-30,95.8,76.5,61.2,65.0,57.1,48.0,91,56,25,29.91,29.71,5,0,0,0.00
2013-8-31,97.8,76.6,59.2,65.0,55.0,49.0,87,52,21,29.82,29.61,5,0,0,0.00
2013-9-1,98.3,76.8,60.3,60.0,54.1,49.0,83,49,22,29.85,29.64,5,0,0,0.00
2013-9-2,95.7,78.0,64.9,62.0,57.8,53.0,83,53,27,29.86,29.68,8,0,0,0.00
2013-9-3,95.5,77.2,63.2,61.0,56.5,51.0,84,53,25,29.86,29.69,6,0,0,0.00
2013-9-4,95.4,76.9,60.7,56.0,50.6,39.0,78,46,20,29.93,29.77,4,0,0,0.00
2013-9-5,95.0,74.2,53.5,53.0,45.2,40.0,71,39,18,29.96,29.81,4,0,0,0.00
2013-9-6,94.2,71.8,51.5,51.0,44.9,42.0,73,43,19,29.98,29.77,9,0,0,0.00
2013-9-7,94.1,71.5,54.8,62.0,53.7,47.0,80,57,26,29.90,29.72,4,0,0,0.05
2013-9-8,92.6,72.9,53.9,58.0,52.6,50.0,88,54,24,29.84,29.61,7,0,0,0.00
2013-9-9,91.0,73.7,56.7,60.0,54.0,47.0,86,54,28,29.72,29.53,6,1,0,0.04
2013-9-10,73.8,65.4,61.0,64.0,60.0,56.0,94,83,58,29.86,29.67,2,0,0,0.60
2013-9-11,84.0,70.0,61.5,67.0,60.1,53.0,96,74,41,29.92,29.78,5,0,0,0.01
2013-9-12,73.9,65.4,58.0,68.0,61.0,56.0,96,86,68,29.90,29.78,3,0,0,0.50
2013-9-13,76.4,65.2,59.5,66.0,60.4,57.0,96,85,56,29.88,29.75,5,0,0,0.43
2013-9-14,77.9,65.2,58.8,64.0,59.6,56.0,96,83,51,29.85,29.73,4,0,0,0.93
2013-9-15,80.8,65.6,55.6,63.0,57.0,52.0,97,77,44,29.93,29.81,2,0,0,0.20
2013-9-16,82.8,66.4,53.5,61.0,55.4,51.0,96,71,38,30.02,29.85,6,0,0,0.00
2013-9-17,83.7,69.0,55.8,63.0,56.6,51.0,96,69,34,29.93,29.70,6,1,0,0.00
2013-9-18,86.4,70.7,61.4,63.0,58.6,55.0,90,68,35,29.76,29.60,8,1,0,0.00
2013-9-19,87.4,69.1,56.2,64.0,57.3,50.0,95,70,29,29.76,29.64,3,0,0,0.11
2013-9-20,85.6,68.3,53.3,59.0,53.4,49.0,90,62,34,29.89,29.74,4,0,0,0.00
2013-9-21,83.4,67.0,52.7,60.0,53.6,48.0,95,66,33,29.89,29.68,6,1,0,0.00
2013-9-22,82.2,65.9,52.6,58.0,53.3,47.0,95,67,32,29.72,29.39,11,2,0,0.05
2013-9-23,77.5,58.7,43.3,50.0,40.6,35.0,90,56,25,29.96,29.61,5,0,0,0.00
2013-9-24,81.6,59.5,42.3,49.0,43.0,40.0,94,61,24,30.07,29.85,5,0,0,0.00
2013-9-25,84.8,63.7,43.3,50.0,44.3,39.0,95,57,24,29.86,29.54,10,1,0,0.00
2013-9-26,85.4,65.7,45.3,52.0,42.3,37.0,93,50,18,29.67,29.51,11,1,0,0.00
2013-9-27,73.7,57.3,41.1,55.0,44.1,35.0,85,63,47,29.95,29.58,6,0,0,0.00
2013-9-28,74.1,50.3,32.3,39.0,31.4,22.0,93,58,16,30.19,29.96,5,0,0,0.00
2013-9-29,80.8,53.5,32.3,39.0,33.9,29.0,94,57,16,30.21,29.96,2,0,0,0.00
2013-9-30,86.1,58.6,38.0,42.0,36.2,32.0,90,51,16,30.00,29.76,4,0,0,0.00
2013-10-1,88.4,59.2,37.1,42.0,36.0,20.0,94,52,10,29.93,29.78,0,0,0,0.00
2013-10-2,84.3,58.1,36.8,42.0,36.9,28.0,94,55,13,29.95,29.75,2,0,0,0.00
2013-10-3,83.0,59.4,38.0,44.0,37.1,29.0,93,53,18,29.85,29.60,5,0,0,0.00
2013-10-4,70.2,54.9,45.4,37.0,26.0,14.0,70,37,17,30.05,29.69,5,1,0,0.00
2013-10-5,68.5,50.2,33.9,29.0,23.2,19.0,68,38,17,30.23,30.05,2,0,0,0.00
2013-10-6,75.2,49.7,30.9,34.0,27.9,22.0,85,49,15,30.33,30.16,2,0,0,0.00
2013-10-7,79.6,52.2,31.5,36.0,30.6,26.0,83,52,14,30.26,30.01,5,0,0,0.00
2013-10-8,82.5,57.9,37.1,37.0,33.8,31.0,85,48,16,30.02,29.72,5,0,0,0.00
2013-10-9,80.0,59.0,37.7,40.0,35.5,30.0,88,48,17,29.82,29.66,8,1,0,0.00
2013-10-10,72.4,49.2,39.2,47.0,37.4,31.0,94,68,27,29.92,29.56,12,1,0,0.18
2013-10-11,68.1,46.3,29.7,39.0,32.6,27.0,95,64,27,30.05,29.92,7,0,0,0.00
2013-10-12,73.9,52.0,31.4,44.0,36.1,29.0,94,61,25,30.16,29.97,5,0,0,0.00
2013-10-13,81.0,60.0,39.8,47.0,41.3,37.0,94,57,22,30.07,29.77,10,2,0,0.00
2013-10-14,75.1,56.6,40.7,46.0,33.8,22.0,86,48,18,29.94,29.79,4,0,0,0.00
2013-10-15,70.1,50.3,29.6,35.0,30.3,26.0,90,52,26,30.05,29.85,6,1,0,0.00
2013-10-16,66.3,52.3,41.6,38.0,30.8,17.0,72,47,23,30.05,29.93,3,0,0,0.00
2013-10-17,69.9,45.8,26.5,30.0,24.7,21.0,89,51,16,30.15,29.91,4,0,0,0.00
2013-10-18,69.4,47.0,27.8,31.0,22.7,16.0,92,47,16,30.16,29.95,9,0,0,0.00
2013-10-19,69.4,46.3,29.2,32.0,26.4,21.0,91,54,17,30.21,30.00,7,0,0,0.00
2013-10-20,75.6,49.3,27.6,29.0,23.6,15.0,89,45,13,30.05,29.82,4,0,0,0.00
2013-10-21,69.8,48.7,32.0,35.0,30.1,26.0,90,54,22,30.14,29.93,2,0,0,0.00
2013-10-22,74.1,47.5,27.9,34.0,28.7,22.0,93,58,15,30.29,30.11,2,0,0,0.00
2013-10-23,75.7,49.3,29.1,35.0,29.5,23.0,84,53,19,30.22,30.03,1,0,0,0.00
2013-10-24,79.4,56.6,34.4,50.0,35.3,28.0,86,52,18,30.17,29.98,4,0,0,0.08
2013-10-25,69.8,54.7,44.0,50.0,45.7,39.0,91,74,42,30.14,29.96,7,0,0,0.06
2013-10-26,73.7,51.1,35.2,49.0,39.7,33.0,96,70,29,30.25,30.09,3,0,0,0.01
2013-10-27,72.8,51.5,34.4,44.0,37.6,32.0,95,66,27,30.18,29.84,5,0,0,0.00
2013-10-28,74.6,54.2,40.0,44.0,35.1,24.0,91,56,19,29.89,29.75,5,0,0,0.00
2013-10-29,72.5,56.1,37.3,33.0,29.4,25.0,83,41,19,29.92,29.68,11,2,0,0.00
2013-10-30,66.3,49.3,37.4,46.0,34.4,28.0,87,59,30,29.93,29.67,6,0,0,0.08
2013-10-31,62.4,43.7,29.3,34.0,28.7,25.0,94,62,28,30.12,29.93,5,0,0,0.00
2013-11-1,66.6,47.7,30.6,33.0,28.0,25.0,86,51,23,30.24,30.08,5,0,0,0.00
2013-11-2,67.3,45.7,27.9,32.0,27.7,25.0,91,56,22,30.32,30.03,7,0,0,0.00
2013-11-3,72.3,51.4,36.6,41.0,32.9,29.0,77,54,22,30.04,29.67,8,1,0,0.00
2013-11-4,69.8,53.3,32.2,43.0,36.4,29.0,93,57,28,29.88,29.68,10,1,0,0.00
2013-11-5,57.5,45.6,29.7,45.0,33.9,18.0,92,66,42,30.25,29.72,4,0,0,0.17
2013-11-6,60.8,39.0,21.7,22.0,18.7,15.0,87,50,18,30.50,30.25,2,0,0,0.00
2013-11-7,64.8,40.7,24.2,30.0,23.4,21.0,93,58,19,30.55,30.30,4,0,0,0.00
2013-11-8,66.1,42.3,23.8,30.0,25.5,21.0,94,59,22,30.32,30.06,4,0,0,0.00
2013-11-9,72.8,45.5,25.6,31.0,26.3,23.0,94,56,17,30.25,30.11,4,0,0,0.00
2013-11-10,71.9,46.9,30.0,31.0,27.4,23.0,86,54,16,30.32,30.16,4,0,0,0.00
2013-11-11,73.5,48.3,32.2,31.0,27.1,23.0,80,51,16,30.34,30.17,7,0,0,0.00
2013-11-12,63.6,44.5,28.7,37.0,30.3,24.0,91,61,33,30.55,30.33,4,0,0,0.00
2013-11-13,60.0,41.9,28.4,39.0,33.2,26.0,95,74,45,30.53,30.16,8,0,0,0.00
2013-11-14,65.5,43.7,29.2,43.0,33.3,26.0,96,71,33,30.17,29.93,3,0,0,0.00
2013-11-15,62.3,43.7,27.2,46.0,34.2,24.0,91,72,36,29.96,29.69,13,1,0,0.09
2013-11-16,64.8,50.6,39.9,44.0,37.5,30.0,94,64,33,29.78,29.54,7,1,0,0.00
2013-11-17,66.0,48.1,33.4,35.0,31.2,27.0,84,56,30,30.13,29.78,5,0,0,0.00
2013-11-18,60.6,40.0,28.5,35.0,30.0,26.0,94,71,35,30.26,30.12,1,0,0,0.00
2013-11-19,66.2,43.5,27.1,36.0,31.3,25.0,95,67,30,30.19,29.88,5,0,0,0.00
2013-11-20,49.3,41.4,32.7,44.0,37.9,30.0,94,87,62,29.96,29.87,5,0,0,0.20
2013-11-21,57.2,46.5,39.6,49.0,43.1,38.0,96,88,69,30.07,29.95,4,0,0,0.18
2013-11-22,45.4,38.1,34.8,44.0,32.4,28.0,93,80,71,30.39,30.05,4,0,0,0.16
2013-11-23,40.9,36.1,30.5,34.0,29.6,22.0,100,78,62,30.48,30.33,6,0,0,0.08
2013-11-24,35.4,30.8,26.4,26.0,24.3,22.0,89,77,65,30.41,30.23,3,0,0,0.08
2013-11-25,51.3,35.9,27.1,33.0,28.0,24.0,91,75,45,30.41,30.19,2,0,0,0.02
2013-11-26,53.0,34.3,22.7,32.0,26.2,21.0,94,75,43,30.55,30.41,3,0,0,0.00
2013-11-27,50.5,34.5,21.7,31.0,26.1,20.0,94,74,44,30.50,30.28,2,0,0,0.00
2013-11-28,53.5,35.1,24.0,29.0,24.9,22.0,93,71,34,30.39,30.26,3,0,0,0.00
2013-11-29,58.8,37.5,23.1,32.0,26.9,21.0,95,70,33,30.46,30.31,2,0,0,0.01
2013-11-30,60.7,39.5,25.3,34.0,29.4,23.0,95,72,37,30.41,30.23,4,0,0,0.00
2013-12-1,53.6,38.2,28.6,35.0,30.2,26.0,94,75,47,30.36,30.26,5,0,0,0.00
2013-12-2,56.9,39.3,28.4,31.0,27.6,25.0,85,66,37,30.28,29.91,4,0,0,0.00
2013-12-3,66.4,42.3,24.2,35.0,22.7,14.0,95,56,13,29.91,29.62,7,1,0,0.00
2013-12-4,61.6,43.6,31.0,33.0,25.5,21.0,70,53,22,29.84,29.52,10,2,0,0.00
2013-12-5,36.8,28.7,14.9,33.0,23.9,10.0,95,83,61,30.12,29.81,3,0,0,0.08
2013-12-6,38.5,22.4,8.9,23.0,14.1,6.0,92,73,42,30.39,30.12,1,0,0,0.09
2013-12-7,31.4,25.0,16.6,27.0,19.8,11.0,92,81,73,30.33,30.01,1,0,0,0.00
2013-12-8,39.8,30.5,23.6,27.0,18.2,11.0,92,61,46,30.12,29.92,6,0,0,0.02
2013-12-9,35.8,25.7,14.5,17.0,9.9,2.0,74,53,28,30.64,30.11,7,1,0,0.00
2013-12-10,38.2,21.8,9.5,9.0,5.3,1.0,77,52,25,30.69,30.48,4,0,0,0.00
2013-12-11,47.6,25.5,9.8,17.0,12.5,6.0,90,63,25,30.71,30.53,3,0,0,0.00
2013-12-12,45.4,30.1,17.5,21.0,16.9,13.0,83,61,35,30.69,30.27,4,0,0,0.00
2013-12-13,51.2,36.8,29.9,32.0,25.8,20.0,80,65,46,30.26,30.02,5,0,0,0.00
2013-12-14,51.3,35.4,21.2,22.0,18.7,16.0,85,54,27,30.50,30.18,4,0,0,0.00
2013-12-15,53.7,33.4,19.1,24.0,18.8,15.0,90,60,26,30.54,30.39,6,0,0,0.00
2013-12-16,60.4,37.0,19.5,27.0,20.9,16.0,92,58,24,30.53,30.36,6,0,0,0.00
2013-12-17,61.6,37.4,20.8,27.0,21.5,17.0,92,59,23,30.52,30.35,3,0,0,0.00
2013-12-18,56.9,35.4,22.4,27.0,22.3,19.0,91,64,27,30.37,30.01,3,0,0,0.00
2013-12-19,59.7,38.4,23.5,29.0,23.6,19.0,89,60,26,30.01,29.72,4,0,0,0.00
2013-12-20,58.3,38.4,24.5,31.0,24.7,20.0,86,63,25,29.85,29.65,5,0,0,0.00
2013-12-21,48.8,38.6,33.7,34.0,28.6,25.0,91,69,43,29.87,29.56,9,1,0,0.01
2013-12-22,47.9,34.5,23.2,26.0,19.9,14.0,87,58,28,30.39,29.87,2,0,0,0.00
2013-12-23,52.4,32.7,19.2,22.0,18.4,14.0,86,60,28,30.60,30.39,5,0,0,0.00
2013-12-24,53.0,34.0,17.6,27.0,20.5,14.0,93,62,30,30.53,30.28,4,0,0,0.00
2013-12-25,51.5,33.1,19.4,24.0,17.7,13.0,91,58,27,30.52,30.39,5,0,0,0.00
2013-12-26,52.9,30.2,13.7,20.0,15.1,10.0,92,59,25,30.56,30.38,4,0,0,0.00
2013-12-27,58.7,33.8,17.7,18.0,15.2,13.0,86,53,18,30.52,30.34,5,0,0,0.00
2013-12-28,51.2,31.2,15.2,21.0,16.1,12.0,89,59,26,30.34,30.03,5,0,0,0.00
2013-12-29,52.3,36.1,22.6,24.0,21.3,18.0,81,58,33,30.28,30.08,4,0,0,0.00
2013-12-30,55.5,34.1,19.3,20.0,14.4,9.0,87,52,17,30.46,30.28,3,0,0,0.00
2013-12-31,54.7,32.2,16.1,20.0,15.4,12.0,87,56,23,30.48,30.26,5,0,0,0.00
2014-1-1,60.7,36.5,18.5,24.0,17.2,14.0,88,52,19,30.39,30.21,5,0,0,0.00
2014-1-2,55.7,32.8,17.3,26.0,15.6,12.0,91,55,19,30.48,30.32,4,0,0,0.00